Accueil
METAR-TAF:

METAR-TAF

Aéroports :

Laval, France

Entrammes

latitude: 48-01-56N, longitude: 000-44-34W, altitude: 101 m

Observation

Le bulletin a été fait il y a 33 minutes, à 22:30 UTC
Vent 5 kt de ouest
Température 18°C
Humidité 64%
Pression 1024 hPa
Visibilité 10 km ou plus
Nuages épars à une hauteur de 4100 ft
Nuages fragmentés à une hauteur de 5200 ft

METAR: LFOV 202230Z AUTO 27005KT 9999 SCT041 BKN052 18/11 Q1024

Heure: 01:03 (23:03 UTC)


TAF: absent

Observations et prévisions météorologiques de plus de 4000 aéroports (messages METAR et TAF).

Les stations disponibles sont représentées par des disques jaunes et rouges sur la carte.

Passer la souris dessus pour voir le nom de la station.

Cliquer dessus pour voir les observations et prévisions météorologiques.

Pour changer de carte: cliquez sur les boutons verts avec une croix noire pour zoomer, sur le bouton vert avec un tiret pour effectuer un zoom arrière, ou sur les flèches vertes pour les cartes adjacentes.


METAR-TAF: